Location: Chuathbaluk
(61.5726°N, 159.2454°W)
Time: 14:47:58
(UTC+00:00)

NOAA 15 - Pass Details

Date: 23 January 2021
Orbit: 798 x 812 km, 98.7° (Epoch: 01 March)

Event Time Altitude Azimuth Distance (km) Brightness Sun altitude
Rises 04:50:59 0° 161° (SSE) 3,306 7.7 -17.2°
Reaches altitude 10° 04:53:18 10° 162° (SSE) 2,381 6.9 -17.5°
Maximum altitude 04:58:35 84° 250° (WSW) 819 4.6 -18.1°
Drops below altitude 10° 05:03:55 10° 340° (NNW) 2,405 7.2 -18.8°
Sets 05:06:17 0° 342° (NNW) 3,342 8.0 -19.0°
